This is the latest recevied weather packets stored in our database for station/object LU4EGV-13. If no packets are shown the sender has not sent any weather packets the latest 10 day(s).
| Time | Temp. | Humidity | Pressure | Rain* | Wind** | Luminosity | Snow |
|---|---|---|---|---|---|---|---|
| 1777730728 | 13.33° C | 47% | 1024 hPa | 0 mm | - | - | - |
| 1777730132 | 13.33° C | 49% | 1023.8 hPa | 0 mm | - | - | - |
| 1777729519 | 12.78° C | 48% | 1023.9 hPa | 0 mm | - | - | - |
| 1777728909 | 13.33° C | 52% | 1023.8 hPa | 0 mm | - | - | - |
| 1777728303 | 13.33° C | 52% | 1023.6 hPa | 0 mm | - | - | - |
| 1777727697 | 12.22° C | 50% | 1023.5 hPa | 0 mm | - | - | - |
| 1777727091 | 12.22° C | 51% | 1023.5 hPa | 0 mm | - | - | - |
| 1777726485 | 11.67° C | 51% | 1023.4 hPa | 0 mm | - | - | - |
| 1777725878 | 11.67° C | 51% | 1023.2 hPa | 0 mm | - | - | - |
| 1777725272 | 11.67° C | 56% | 1022.9 hPa | 0 mm | - | - | - |
| 1777724667 | 11.11° C | 63% | 1022.7 hPa | 0 mm | - | - | - |
| 1777724061 | 11.11° C | 68% | 1022.6 hPa | 0 mm | - | - | - |
| 1777723454 | 10.56° C | 71% | 1022.4 hPa | 0 mm | - | - | - |
| 1777722847 | 10° C | 72% | 1022.3 hPa | 0 mm | - | - | - |
| 1777722242 | 9.44° C | 75% | 1022.1 hPa | 0 mm | - | - | - |
| 1777721635 | 9.44° C | 76% | 1021.8 hPa | 0 mm | - | - | - |
| 1777721029 | 9.44° C | 77% | 1021.4 hPa | 0 mm | - | - | - |
| 1777720423 | 8.89° C | 77% | 1021.6 hPa | 0 mm | - | - | - |
| 1777719830 | 8.89° C | 77% | 1021.3 hPa | 0 mm | - | - | - |
| 1777719210 | 8.89° C | 79% | 1021.1 hPa | 0 mm | - | - | - |
| 1777718604 | 9.44° C | 80% | 1021.1 hPa | 0 mm | - | - | - |
| 1777718000 | 9.44° C | 81% | 1020.8 hPa | 0 mm | - | - | - |
| 1777717392 | 9.44° C | 81% | 1020.8 hPa | 0 mm | - | - | - |
| 1777716796 | 9.44° C | 81% | 1020.5 hPa | 0 mm | - | - | - |
| 1777716188 | 10° C | 81% | 1020.3 hPa | 0 mm | - | - | - |
* Rain latest hour (hover to see other rain measurements)
** Current wind speed in m/s (hover to see current wind gust speed)